Regional Weather Roundup
Issued by NWS Sioux Falls, SD

Home | Current Version | Previous Version | Text Only | Print | Product List | Glossary On
Versions: 1 2 3 4 5 6 7 8 9 10 11 12 13 14 15 16 17 18 19 20 21 22 23 24 25 26 27 28 29 30 31 32 33 34 35 36 37 38 39 40 41 42 43 44 45 46 47 48 49 50
000
ASUS43 KFSD 010410
RWRFSD

WEATHER ROUNDUP FOR SE SOUTH DAKOTA/SW MINNESOTA/NW IOWA
NATIONAL WEATHER SERVICE SIOUX FALLS SD
1100 PM CDT THU JUL 31 2014

NOTE: "FAIR" INDICATES FEW OR NO CLOUDS BELOW 12,000 FEET WITH NO
SIGNIFICANT WEATHER AND OR OBSTRUCTIONS TO VISIBILITY.


SDZ038>040-050-052>070-010500-
SOUTHEAST SOUTH DAKOTA

CITY           SKY/WX    TMP DP  RH WIND       PRES   REMARKS
CHAMBERLAIN    CLEAR     66  57  73 E5        30.06R
HURON          CLEAR     64  57  78 CALM      30.05R
MADISON        FAIR      59  59 100 N3        30.07S
MITCHELL       CLEAR     67  60  78 SE7       30.06R
SIOUX FALLS    CLEAR     61  59  93 CALM      30.06R
WINNER         FAIR      70  57  63 SE9       30.07R
YANKTON        CLEAR     63  61  94 E3        30.07R
$$

MNZ071-072-080-081-089-090-097-098-010500-
SOUTHWEST MINNESOTA

CITY           SKY/WX    TMP DP  RH WIND       PRES   REMARKS
FAIRMONT       PTCLDY    66  57  72 CALM      30.05S
JACKSON        CLEAR     64  61  88 S6        30.07S
LUVERNE        CLEAR     64  59  82 CALM      30.07S
MARSHALL       CLEAR     64  57  77 SW5         N/A
MONTEVIDEO     CLEAR     66  55  68 CALM      30.04S
PIPESTONE      CLEAR     66  57  72 CALM      30.07S
REDWOOD FALLS  CLEAR     67  58  72 CALM      30.03S
TRACY          CLEAR     65  58  77 SW3       30.06S
WINDOM         CLEAR     61  57  88 CALM      30.06S
WORTHINGTON    PTCLDY    68  61  77 CALM      30.08S
$$

IAZ001>003-012>014-020>022-031-032-NEZ013-014-SDZ071-010500-
NORTHWEST IOWA

CITY           SKY/WX    TMP DP  RH WIND       PRES   REMARKS
CHEROKEE       CLEAR     61  60  96 CALM      30.06S
DENISON        PTCLDY    63  61  94 E5        30.05R
ESTHERVILLE    PTCLDY    63  61  93 NW5       30.06R
LE MARS        CLEAR     61  61 100 CALM      30.07R
ORANGE CITY    CLEAR     68  59  73 CALM      30.07S
SHELDON        CLEAR     59  57  94 CALM      30.05F
SIOUX CITY     CLEAR     63  59  87 CALM      30.06R
SPENCER        CLEAR     61  57  87 SW3       30.06S
STORM LAKE     PTCLDY    61  61 100 CALM      30.07S
$$

ABBREVIATIONS USED IN REMARKS
   TC - TEMPERATURE IN CELSIUS
  WCI - WIND CHILL INDEX
   HX - HEAT INDEX
  VSB - VISIBILITY



USA.gov is the U.S. government's official web portal to all federal, state and local government web resources and services.